Time,TemperatureF,DewpointF,PressureIn,WindDirection,WindDirectionDegrees,WindSpeedMPH,WindSpeedGustMPH,Humidity,HourlyPrecipIn,Conditions,Clouds,dailyrainin,SoftwareType,DateUTC
2013-09-19 00:01:00,56.0,49.0,30.13,WSW,238,1.0,6.0,77,0.00,,,0.00,,2013-09-19 04:01:00,
2013-09-19 00:25:00,56.0,50.0,30.12,SW,232,1.0,5.0,79,0.00,,,0.00,,2013-09-19 04:25:00,
2013-09-19 00:54:00,55.0,49.0,30.12,SW,236,2.0,5.0,81,0.00,,,0.00,,2013-09-19 04:54:00,
2013-09-19 01:13:00,55.0,49.0,30.13,WSW,243,1.0,6.0,81,0.00,,,0.00,,2013-09-19 05:13:00,
2013-09-19 01:23:00,55.0,49.0,30.13,WSW,240,1.0,6.0,81,0.00,,,0.00,,2013-09-19 05:23:00,
2013-09-19 01:52:00,54.0,49.0,30.13,WSW,245,2.0,7.0,84,0.00,,,0.00,,2013-09-19 05:52:00,
2013-09-19 02:12:00,54.0,50.0,30.12,WSW,245,1.0,6.0,85,0.00,,,0.00,,2013-09-19 06:12:00,
2013-09-19 02:22:00,54.0,50.0,30.12,WSW,248,1.0,6.0,86,0.00,,,0.00,,2013-09-19 06:22:00,
2013-09-19 02:43:00,53.0,49.0,30.11,WSW,254,1.0,4.0,86,0.00,,,0.00,,2013-09-19 06:43:00,
2013-09-19 02:52:00,53.0,49.0,30.11,WSW,254,0.0,4.0,86,0.00,,,0.00,,2013-09-19 06:52:00,
2013-09-19 03:12:00,53.0,49.0,30.11,WSW,254,1.0,4.0,86,0.00,,,0.00,,2013-09-19 07:12:00,
2013-09-19 03:22:00,53.0,49.0,30.11,WSW,254,0.0,3.0,86,0.00,,,0.00,,2013-09-19 07:22:00,
2013-09-19 03:52:00,53.0,49.0,30.11,WSW,253,0.0,5.0,85,0.00,,,0.00,,2013-09-19 07:52:00,
2013-09-19 04:12:00,53.0,49.0,30.10,WSW,252,1.0,4.0,86,0.00,,,0.00,,2013-09-19 08:12:00,
2013-09-19 04:22:00,53.0,49.0,30.10,WSW,252,0.0,5.0,86,0.00,,,0.00,,2013-09-19 08:22:00,
2013-09-19 04:52:00,53.0,49.0,30.10,WSW,252,0.0,4.0,87,0.00,,,0.00,,2013-09-19 08:52:00,
2013-09-19 05:11:00,53.0,50.0,30.10,WSW,253,1.0,7.0,88,0.00,,,0.00,,2013-09-19 09:11:00,
2013-09-19 05:22:00,52.0,49.0,30.10,WSW,250,0.0,4.0,88,0.00,,,0.00,,2013-09-19 09:22:00,
2013-09-19 05:53:00,51.0,48.0,30.10,WSW,250,0.0,2.0,89,0.00,,,0.00,,2013-09-19 09:53:00,
2013-09-19 06:12:00,51.0,48.0,30.10,WSW,250,0.0,2.0,91,0.00,,,0.00,,2013-09-19 10:12:00,
2013-09-19 06:24:00,51.0,48.0,30.10,WSW,250,0.0,4.0,91,0.00,,,0.00,,2013-09-19 10:24:00,
2013-09-19 06:43:00,51.0,48.0,30.11,WSW,250,0.0,0.0,91,0.00,,,0.00,,2013-09-19 10:43:00,
2013-09-19 06:52:00,50.0,48.0,30.11,WSW,250,0.0,0.0,92,0.00,,,0.00,,2013-09-19 10:52:00,
2013-09-19 07:12:00,50.0,48.0,30.11,WSW,250,0.0,0.0,92,0.00,,,0.00,,2013-09-19 11:12:00,
2013-09-19 07:22:00,50.0,48.0,30.11,WSW,250,0.0,1.0,93,0.00,,,0.00,,2013-09-19 11:22:00,
2013-09-19 07:42:00,50.0,48.0,30.11,WSW,250,0.0,1.0,93,0.00,,,0.00,,2013-09-19 11:42:00,
2013-09-19 07:52:00,51.0,49.0,30.11,WSW,250,0.0,3.0,93,0.00,,,0.00,,2013-09-19 11:52:00,
2013-09-19 08:11:00,53.0,50.0,30.11,WSW,250,0.0,2.0,91,0.00,,,0.00,,2013-09-19 12:11:00,
2013-09-19 08:22:00,54.0,51.0,30.11,WSW,250,0.0,2.0,90,0.00,,,0.00,,2013-09-19 12:22:00,
2013-09-19 08:52:00,58.0,53.0,30.11,West,266,1.0,7.0,82,0.00,,,0.00,,2013-09-19 12:52:00,
2013-09-19 09:11:00,59.0,51.0,30.11,WNW,287,3.0,9.0,75,0.00,,,0.00,,2013-09-19 13:11:00,
2013-09-19 09:22:00,60.0,51.0,30.11,WNW,302,5.0,8.0,72,0.00,,,0.00,,2013-09-19 13:22:00,
2013-09-19 09:52:00,63.0,52.0,30.11,West,275,0.0,6.0,67,0.00,,,0.00,,2013-09-19 13:52:00,
2013-09-19 10:22:00,65.0,52.0,30.11,West,260,0.0,7.0,62,0.00,,,0.00,,2013-09-19 14:22:00,
2013-09-19 10:52:00,67.0,51.0,30.10,WNW,288,1.0,6.0,57,0.00,,,0.00,,2013-09-19 14:52:00,
2013-09-19 11:22:00,68.0,50.0,30.10,WNW,288,4.0,7.0,53,0.00,,,0.00,,2013-09-19 15:22:00,
2013-09-19 11:43:00,70.0,50.0,30.09,WNW,286,4.0,8.0,50,0.00,,,0.00,,2013-09-19 15:43:00,
2013-09-19 11:53:00,70.0,50.0,30.09,WNW,295,5.0,8.0,49,0.00,,,0.00,,2013-09-19 15:53:00,
2013-09-19 12:04:00,70.0,50.0,30.09,WNW,295,5.0,8.0,49,0.00,,,0.00,,2013-09-19 16:04:00,
2013-09-19 12:24:00,71.0,49.0,30.08,SW,221,1.0,5.0,46,0.00,,,0.00,,2013-09-19 16:24:00,
2013-09-19 12:43:00,72.0,49.0,30.08,WNW,288,2.0,7.0,45,0.00,,,0.00,,2013-09-19 16:43:00,
2013-09-19 12:52:00,72.0,49.0,30.08,SW,223,1.0,5.0,44,0.00,,,0.00,,2013-09-19 16:52:00,
2013-09-19 13:12:00,73.0,49.0,30.08,West,271,3.0,7.0,43,0.00,,,0.00,,2013-09-19 17:12:00,
2013-09-19 13:23:00,74.0,49.0,30.08,WSW,240,2.0,5.0,42,0.00,,,0.00,,2013-09-19 17:23:00,
2013-09-19 13:53:00,75.0,48.0,30.07,SSW,213,3.0,7.0,39,0.00,,,0.00,,2013-09-19 17:53:00,
2013-09-19 14:11:00,75.0,55.0,30.06,SE,128,1.0,8.0,49,0.00,,,0.00,,2013-09-19 18:11:00,
2013-09-19 14:22:00,74.0,51.0,30.06,North,351,0.0,6.0,44,0.00,,,0.00,,2013-09-19 18:22:00,
2013-09-19 14:42:00,75.0,53.0,30.05,SE,128,2.0,7.0,46,0.00,,,0.00,,2013-09-19 18:42:00,
2013-09-19 14:52:00,71.0,54.0,30.04,South,175,4.0,13.0,55,0.00,,,0.00,,2013-09-19 18:52:00,
2013-09-19 15:12:00,71.0,54.0,30.04,SW,215,5.0,10.0,54,0.00,,,0.00,,2013-09-19 19:12:00,
2013-09-19 15:22:00,69.0,53.0,30.03,South,187,7.0,16.0,57,0.00,,,0.00,,2013-09-19 19:22:00,
2013-09-19 15:52:00,69.0,52.0,30.03,WNW,294,5.0,15.0,54,0.00,,,0.00,,2013-09-19 19:52:00,
2013-09-19 16:12:00,68.0,51.0,30.03,South,191,9.0,15.0,55,0.00,,,0.00,,2013-09-19 20:12:00,
2013-09-19 16:22:00,68.0,52.0,30.03,SE,130,6.0,13.0,57,0.00,,,0.00,,2013-09-19 20:22:00,
2013-09-19 16:42:00,68.0,52.0,30.02,SE,132,9.0,17.0,57,0.00,,,0.00,,2013-09-19 20:42:00,
2013-09-19 16:52:00,68.0,53.0,30.02,South,178,9.0,16.0,59,0.00,,,0.00,,2013-09-19 20:52:00,
2013-09-19 17:12:00,68.0,53.0,30.02,SE,142,7.0,16.0,59,0.00,,,0.00,,2013-09-19 21:12:00,
2013-09-19 17:22:00,68.0,54.0,30.02,South,190,6.0,13.0,60,0.00,,,0.00,,2013-09-19 21:22:00,
2013-09-19 17:44:00,68.0,54.0,30.02,SSE,153,5.0,13.0,60,0.00,,,0.00,,2013-09-19 21:44:00,
2013-09-19 17:55:00,67.0,54.0,30.02,SE,144,6.0,15.0,62,0.00,,,0.00,,2013-09-19 21:55:00,
2013-09-19 18:24:00,67.0,55.0,30.02,SE,130,7.0,12.0,65,0.00,,,0.00,,2013-09-19 22:24:00,
2013-09-19 18:53:00,67.0,56.0,30.01,SSE,161,0.0,6.0,68,0.00,,,0.00,,2013-09-19 22:53:00,
2013-09-19 19:23:00,66.0,56.0,30.02,SE,142,0.0,5.0,71,0.00,,,0.00,,2013-09-19 23:23:00,
2013-09-19 19:53:00,64.0,56.0,30.01,SE,142,0.0,3.0,74,0.00,,,0.00,,2013-09-19 23:53:00,
2013-09-19 20:12:00,64.0,56.0,30.02,SE,142,0.0,1.0,75,0.00,,,0.00,,2013-09-20 00:12:00,
2013-09-19 20:22:00,63.0,55.0,30.02,SE,142,0.0,2.0,75,0.00,,,0.00,,2013-09-20 00:22:00,
2013-09-19 20:42:00,63.0,55.0,30.03,SSE,149,0.0,3.0,76,0.00,,,0.00,,2013-09-20 00:42:00,
2013-09-19 20:52:00,63.0,56.0,30.03,SSE,149,0.0,4.0,77,0.00,,,0.00,,2013-09-20 00:52:00,
2013-09-19 21:12:00,62.0,55.0,30.03,SSE,161,1.0,4.0,78,0.00,,,0.00,,2013-09-20 01:12:00,
2013-09-19 21:22:00,62.0,55.0,30.03,SSE,162,0.0,4.0,78,0.00,,,0.00,,2013-09-20 01:22:00,
2013-09-19 21:42:00,62.0,55.0,30.03,South,170,0.0,4.0,78,0.00,,,0.00,,2013-09-20 01:42:00,
2013-09-19 21:52:00,62.0,55.0,30.03,South,170,1.0,4.0,79,0.00,,,0.00,,2013-09-20 01:52:00,
2013-09-19 22:12:00,61.0,54.0,30.03,South,188,0.0,4.0,79,0.00,,,0.00,,2013-09-20 02:12:00,
2013-09-19 22:22:00,61.0,54.0,30.03,SW,236,1.0,6.0,79,0.00,,,0.00,,2013-09-20 02:22:00,
2013-09-19 22:52:00,61.0,54.0,30.03,SW,223,1.0,6.0,79,0.00,,,0.00,,2013-09-20 02:52:00,
2013-09-19 23:12:00,61.0,54.0,30.02,SW,230,1.0,8.0,79,0.00,,,0.00,,2013-09-20 03:12:00,
2013-09-19 23:23:00,60.0,53.0,30.02,SW,220,1.0,6.0,79,0.00,,,0.00,,2013-09-20 03:23:00,
2013-09-19 23:45:00,60.0,53.0,30.02,WSW,238,3.0,7.0,79,0.00,,,0.00,,2013-09-20 03:45:00,
2013-09-19 23:56:00,60.0,53.0,30.02,West,261,1.0,7.0,79,0.00,,,0.00,,2013-09-20 03:56:00,